| time (UTC) | temp F | wind direction | speed MPH | gust MPH | rain 1hr in | rain 24hr in | rain mn in | humidity % | barometer mb |
| 20260507003019 | 80 | 293 | 3.0 | 6.0 | 0.00 | 0.00 | 0.00 | 22 | 1010.0 |
| 20260507001517 | 80 | 298 | 3.0 | 7.0 | 0.00 | 0.00 | 0.00 | 21 | 1010.0 |
| 20260507000026 | 80 | 236 | 3.0 | 9.0 | 0.00 | 0.00 | 0.00 | 22 | 1009.9 |
| 20260506234516 | 80 | 330 | 3.0 | 8.0 | 0.00 | 0.00 | 0.00 | 22 | 1009.9 |
| 20260506233017 | 80 | 274 | 3.0 | 10.0 | 0.00 | 0.00 | 0.00 | 22 | 1010.1 |
| 20260506231514 | 80 | 222 | 0.0 | 8.0 | 0.00 | 0.00 | 0.00 | 22 | 1010.1 |
| 20260506230011 | 80 | 257 | 1.0 | 5.0 | 0.00 | 0.00 | 0.00 | 23 | 1010.2 |
| 20260506224509 | 79 | 305 | 3.0 | 7.0 | 0.00 | 0.00 | 0.00 | 24 | 1010.4 |
| 20260506223006 | 79 | 221 | 1.0 | 6.0 | 0.00 | 0.00 | 0.00 | 25 | 1010.5 |
| 20260506221504 | 78 | 357 | 1.0 | 9.0 | 0.00 | 0.00 | 0.00 | 25 | 1010.5 |
| 20260506220003 | 78 | 226 | 2.0 | 8.0 | 0.00 | 0.00 | 0.00 | 26 | 1010.8 |
| 20260506214502 | 80 | 304 | 3.0 | 8.0 | 0.00 | 0.00 | 0.00 | 25 | 1010.9 |
| 20260506213100 | 78 | 313 | 3.0 | 7.0 | 0.00 | 0.00 | 0.00 | 25 | 1011.1 |
| 20260506211557 | 77 | 39 | 1.0 | 8.0 | 0.00 | 0.00 | 0.00 | 27 | 1011.3 |
| 20260506204555 | 79 | 298 | 2.0 | 8.0 | 0.00 | 0.00 | 0.00 | 27 | 1011.7 |
| 20260506203100 | 78 | 262 | 4.0 | 7.0 | 0.00 | 0.00 | 0.00 | 26 | 1011.8 |
| 20260506201551 | 78 | 159 | 1.0 | 7.0 | 0.00 | 0.00 | 0.00 | 26 | 1012.0 |
| 20260506200125 | 77 | 230 | 1.0 | 6.0 | 0.00 | 0.00 | 0.00 | 27 | 1012.2 |
| 20260506194547 | 76 | 266 | 3.0 | 11.0 | 0.00 | 0.00 | 0.00 | 25 | 1012.4 |
| 20260506193046 | 76 | 207 | 1.0 | 6.0 | 0.00 | 0.00 | 0.00 | 25 | 1012.5 |
| 20260506191546 | 75 | 323 | 2.0 | 8.0 | 0.00 | 0.00 | 0.00 | 25 | 1012.9 |
| 20260506190041 | 76 | 262 | 1.0 | 4.0 | 0.00 | 0.00 | 0.00 | 25 | 1013.0 |
| 20260506184537 | 74 | 269 | 1.0 | 4.0 | 0.00 | 0.00 | 0.00 | 27 | 1013.0 |
| 20260506183036 | 73 | 51 | 0.0 | 7.0 | 0.00 | 0.00 | 0.00 | 31 | 1013.2 |
| 20260506181536 | 73 | 308 | 3.0 | 8.0 | 0.00 | 0.00 | 0.00 | 31 | 1013.4 |
| 20260506180039 | 73 | 309 | 2.0 | 5.0 | 0.00 | 0.00 | 0.00 | 32 | 1013.5 |
| 20260506174529 | 72 | 117 | 1.0 | 3.0 | 0.00 | 0.00 | 0.00 | 34 | 1013.5 |
| 20260506173024 | 70 | 98 | 2.0 | 6.0 | 0.00 | 0.00 | 0.00 | 36 | 1013.5 |
| 20260506171538 | 70 | 352 | 1.0 | 6.0 | 0.00 | 0.00 | 0.00 | 36 | 1013.5 |
| 20260506170022 | 69 | 243 | 2.0 | 6.0 | 0.00 | 0.00 | 0.00 | 38 | 1013.5 |
| 20260506164521 | 69 | 214 | 0.0 | 3.0 | 0.00 | 0.00 | 0.00 | 40 | 1013.5 |
| 20260506163021 | 68 | 281 | 0.0 | 2.0 | 0.00 | 0.00 | 0.00 | 40 | 1013.5 |
| 20260506161521 | 67 | 240 | 0.0 | 3.0 | 0.00 | 0.00 | 0.00 | 42 | 1013.5 |
| 20260506160014 | 66 | 269 | 0.0 | 2.0 | 0.00 | 0.00 | 0.00 | 44 | 1013.5 |
| 20260506154510 | 66 | 257 | 0.0 | 3.0 | 0.00 | 0.00 | 0.00 | 45 | 1013.3 |
| 20260506153010 | 65 | 251 | 0.0 | 2.0 | 0.00 | 0.00 | 0.00 | 48 | 1013.4 |
| 20260506151507 | 64 | 255 | 0.0 | 0.0 | 0.00 | 0.00 | 0.00 | 48 | 1013.4 |
| 20260506150007 | 64 | 226 | 0.0 | 4.0 | 0.00 | 0.00 | 0.00 | 49 | 1013.5 |
| 20260506144502 | 63 | 158 | 0.0 | 3.0 | 0.00 | 0.00 | 0.00 | 51 | 1013.4 |
| 20260506143059 | 61 | 153 | 0.0 | 4.0 | 0.00 | 0.00 | 0.00 | 54 | 1013.5 |
| 20260506141557 | 60 | 147 | 2.0 | 4.0 | 0.00 | 0.00 | 0.00 | 57 | 1013.6 |
| 20260506140056 | 60 | 144 | 0.0 | 0.0 | 0.00 | 0.00 | 0.00 | 60 | 1013.5 |
| 20260506134617 | 59 | 227 | 0.0 | 0.0 | 0.00 | 0.00 | 0.00 | 63 | 1013.4 |
| 20260506133055 | 59 | 148 | 0.0 | 0.0 | 0.00 | 0.00 | 0.00 | 63 | 1013.4 |
| 20260506131608 | 56 | 148 | 0.0 | 0.0 | 0.00 | 0.00 | 0.00 | 70 | 1013.3 |
| 20260506130053 | 53 | 148 | 0.0 | 0.0 | 0.00 | 0.00 | 0.00 | 75 | 1013.2 |
| 20260506124552 | 51 | 148 | 0.0 | 0.0 | 0.00 | 0.01 | 0.00 | 76 | 1013.1 |
| 20260506123050 | 51 | 148 | 0.0 | 0.0 | 0.00 | 0.01 | 0.00 | 75 | 1013.0 |
| 20260506121547 | 51 | 148 | 0.0 | 0.0 | 0.00 | 0.01 | 0.00 | 74 | 1012.8 |
| 20260506120044 | 52 | 148 | 0.0 | 0.0 | 0.00 | 0.01 | 0.00 | 72 | 1012.6 |
| 20260506114547 | 52 | 148 | 0.0 | 0.0 | 0.00 | 0.03 | 0.00 | 70 | 1012.3 |
| 20260506113041 | 52 | 150 | 0.0 | 1.0 | 0.00 | 0.03 | 0.00 | 70 | 1012.2 |
| 20260506111537 | 53 | 155 | 0.0 | 2.0 | 0.00 | 0.03 | 0.00 | 69 | 1012.2 |
| 20260506110035 | 53 | 183 | 0.0 | 3.0 | 0.00 | 0.03 | 0.00 | 69 | 1012.0 |
| 20260506104533 | 54 | 135 | 0.0 | 0.0 | 0.00 | 0.06 | 0.00 | 69 | 1012.0 |
| 20260506103033 | 54 | 187 | 1.0 | 2.0 | 0.00 | 0.06 | 0.00 | 67 | 1012.0 |
| 20260506101529 | 55 | 157 | 0.0 | 1.0 | 0.00 | 0.06 | 0.00 | 66 | 1011.8 |
| 20260506100033 | 55 | 215 | 0.0 | 0.0 | 0.00 | 0.06 | 0.00 | 66 | 1011.8 |
| 20260506094527 | 55 | 168 | 1.0 | 3.0 | 0.00 | 0.10 | 0.00 | 66 | 1011.6 |
| 20260506093027 | 56 | 160 | 0.0 | 3.0 | 0.00 | 0.10 | 0.00 | 67 | 1011.6 |
| 20260506091524 | 56 | 182 | 1.0 | 3.0 | 0.00 | 0.10 | 0.00 | 68 | 1011.4 |
| 20260506090021 | 57 | 158 | 1.0 | 4.0 | 0.00 | 0.10 | 0.00 | 68 | 1011.4 |
| 20260506084519 | 57 | 134 | 0.0 | 4.0 | 0.00 | 0.15 | 0.00 | 67 | 1011.6 |
| 20260506083017 | 57 | 163 | 2.0 | 5.0 | 0.00 | 0.15 | 0.00 | 66 | 1011.5 |
| 20260506081519 | 58 | 160 | 0.0 | 0.0 | 0.00 | 0.15 | 0.00 | 65 | 1011.7 |
| 20260506073005 | 60 | 228 | 0.0 | 0.0 | 0.00 | 0.22 | 0.00 | 61 | 1011.8 |
| 20260506071502 | 60 | 239 | 0.0 | 0.0 | 0.00 | 0.22 | 0.00 | 60 | 1011.8 |
| 20260506070126 | 61 | 233 | 0.0 | 4.0 | 0.00 | 0.22 | 0.00 | 59 | 1011.6 |
| 20260506061558 | 62 | 276 | 0.0 | 3.0 | 0.00 | 0.26 | 0.22 | 56 | 1011.3 |
| 20260506050105 | 64 | 273 | 0.0 | 3.0 | 0.00 | 0.28 | 0.22 | 52 | 1011.0 |
| 20260506044553 | 64 | 295 | 1.0 | 4.0 | 0.00 | 0.28 | 0.22 | 51 | 1010.8 |
| 20260506043051 | 64 | 272 | 2.0 | 8.0 | 0.00 | 0.28 | 0.22 | 50 | 1010.6 |
| 20260506041549 | 65 | 242 | 3.0 | 8.0 | 0.00 | 0.28 | 0.22 | 48 | 1010.3 |
| 20260506040049 | 65 | 263 | 3.0 | 8.0 | 0.00 | 0.28 | 0.22 | 44 | 1010.1 |
| 20260506034551 | 66 | 255 | 1.0 | 5.0 | 0.00 | 0.30 | 0.22 | 40 | 1009.9 |
| 20260506033048 | 66 | 266 | 1.0 | 6.0 | 0.00 | 0.30 | 0.22 | 38 | 1009.8 |
| 20260506031547 | 67 | 240 | 2.0 | 6.0 | 0.00 | 0.30 | 0.22 | 37 | 1009.6 |
| 20260506030047 | 67 | 268 | 1.0 | 10.0 | 0.00 | 0.30 | 0.22 | 36 | 1009.4 |
| 20260506024554 | 68 | 201 | 3.0 | 12.0 | 0.00 | 0.36 | 0.22 | 36 | 1009.2 |
| 20260506023045 | 68 | 259 | 3.0 | 10.0 | 0.00 | 0.36 | 0.22 | 37 | 1008.9 |
| 20260506021545 | 68 | 262 | 3.0 | 12.0 | 0.00 | 0.36 | 0.22 | 37 | 1008.6 |
| 20260506020055 | 70 | 278 | 4.0 | 11.0 | 0.00 | 0.36 | 0.22 | 35 | 1008.3 |
| 20260506014548 | 71 | 271 | 5.0 | 15.0 | 0.00 | 0.43 | 0.22 | 35 | 1008.2 |
| 20260506013143 | 72 | 274 | 6.0 | 18.0 | 0.00 | 0.43 | 0.22 | 33 | 1008.0 |
| 20260506011606 | 74 | 213 | 4.0 | 12.0 | 0.00 | 0.43 | 0.22 | 29 | 1007.8 |
| 20260506010043 | 74 | 330 | 8.0 | 14.0 | 0.00 | 0.43 | 0.22 | 29 | 1007.7 |
| 20260506004557 | 75 | 293 | 5.0 | 15.0 | 0.00 | 0.46 | 0.22 | 30 | 1007.5 |